Flag for Germany Weather past 2 weeks in Hamburg, Hamburg, Germany

Now
70 °F

Scattered clouds.


Feels Like: 70 °F
Forecast: 54 / 72 °F
Wind: 6 mph from East

Location: Hamburg-Fuhlsbuettel

Current Time: Sep 18, 2014 at 7:58:09 PM

Latest Report: Sep 18, 2014 at 7:20 PM


Visibility: N/A

Pressure: 29.92 "Hg

Humidity: 60%

Dew point: 55 °F

Location of HamburgLocation

Historic Weather in Hamburg — Graph

°F

Hamburg temperature yesterday

Maximum temperature yesterday: 73 °F (at 1:50 PM)
Minimum temperature yesterday: 55 °F (at 6:20 AM)
Average temperature yesterday: 65 °F

Past Weeks' High & Low Weather Summary

 TemperatureHumidityPressure
High79 °F (Sep 5, 3:50 PM)100% (Sep 4, 6:50 AM)30.27 "Hg (Sep 4, 6:50 AM)
Low48 °F (Sep 12, 5:20 AM)44% (Sep 4, 4:20 PM)29.86 "Hg (Sep 6, 2:50 PM)
Average63 °F83%30.06 "Hg
* Reported Sep 3 6:20 PM — Sep 18 6:50 PM, Hamburg, Weather by CustomWeather, © 2014

Note: Actual official high and low records may vary slightly from our data, if they occured in-between our weather recording intervals... More about our weather records

Advertising

Hamburg weather history for previous 24 hours

 ConditionsComfort  
Time TempWeatherWind HumidityBarometerVisibility
6:50 PM
Sep 18
72 °FPassing clouds.10 mph57%29.92 "HgN/A
6:20 PM72 °FPassing clouds.10 mph57%29.92 "HgN/A
5:50 PM73 °FPassing clouds.12 mph53%29.92 "HgN/A
5:20 PM73 °FPassing clouds.12 mph53%29.92 "HgN/A
4:50 PM73 °FPassing clouds.12 mph50%29.92 "HgN/A
4:20 PM73 °FPassing clouds.13 mph53%29.92 "HgN/A
3:50 PM73 °FPassing clouds.14 mph50%29.92 "HgN/A
3:20 PM73 °FPassing clouds.12 mph53%29.92 "HgN/A
2:50 PM73 °FPassing clouds.12 mph53%29.92 "HgN/A
2:20 PM73 °FPassing clouds.15 mph57%29.92 "HgN/A
1:50 PM72 °FPassing clouds.12 mph57%29.92 "HgN/A
1:20 PM72 °FPassing clouds.14 mph57%29.92 "HgN/A
12:50 PM72 °FPassing clouds.12 mph61%29.92 "HgN/A
12:20 PM70 °FSunny.14 mph60%29.95 "Hg10 mi
11:50 AM70 °FSunny.12 mph64%29.95 "Hg10 mi
11:20 AM68 °FSunny.12 mph69%29.95 "Hg10 mi
10:50 AM66 °FSunny.9 mph68%29.95 "Hg10 mi
10:20 AM64 °FSunny.10 mph73%29.95 "Hg10 mi
9:50 AM63 °FSunny.12 mph77%29.95 "Hg10 mi
9:20 AM61 °FSunny.10 mph83%29.95 "Hg10 mi
8:50 AM61 °FPassing clouds.7 mph83%29.95 "HgN/A
8:20 AM57 °FSunny.6 mph94%29.95 "Hg10 mi
7:50 AM55 °FClear.6 mph94%29.95 "Hg10 mi
7:20 AM55 °FClear.5 mph94%29.95 "Hg10 mi
6:50 AM55 °FFog.2 mph94%29.95 "HgN/A
6:20 AM55 °FClear.2 mph100%29.95 "Hg10 mi
5:50 AM55 °FClear.3 mph100%29.95 "Hg10 mi
5:20 AM55 °FFog.5 mph100%29.95 "HgN/A
4:50 AM55 °FFog.3 mph100%29.95 "HgN/A
4:20 AM57 °FFog.3 mph94%29.95 "HgN/A
3:50 AM57 °FClear.5 mph94%29.95 "Hg10 mi
3:20 AM57 °FClear.5 mph94%29.95 "Hg10 mi
2:50 AM57 °FClear.5 mph94%29.95 "Hg10 mi
2:20 AM57 °FClear.6 mph94%29.98 "Hg10 mi
1:50 AM59 °FClear.5 mph88%29.98 "Hg10 mi
1:20 AM59 °FClear.6 mph94%29.98 "Hg10 mi
12:50 AM61 °FClear.6 mph83%29.98 "Hg10 mi
12:20 AM63 °FPassing clouds.8 mph83%29.98 "HgN/A
11:50 PM
Sep 17
61 °FClear.9 mph88%29.98 "Hg10 mi
11:20 PM61 °FClear.8 mph88%29.98 "Hg10 mi
10:50 PM63 °FClear.8 mph83%29.98 "Hg10 mi
10:20 PM63 °FClear.8 mph83%29.98 "Hg10 mi
9:50 PM64 °FClear.9 mph78%29.98 "Hg10 mi
9:20 PM66 °FClear.10 mph78%29.98 "Hg10 mi
8:50 PM66 °FClear.9 mph73%29.98 "Hg10 mi
8:20 PM64 °FSunny.8 mph78%29.98 "Hg10 mi
7:50 PM66 °FSunny.9 mph73%29.98 "Hg10 mi
7:20 PM68 °FSunny.9 mph69%29.98 "Hg10 mi
Weather by CustomWeather, © 2014

See weather overviewHow to use our weather pages